Texarkana, AR

12:44 AM CST on December 14, 2017 (GMT -0600)
Texarkana Regional-Webb

Weather History for KTXK - April, 2014

Change the Weather History Date:

Tuesday, April 29, 2014

  Actual Average Record
Temperature  
Mean Temperature 64 °F 67 °F  
Max Temperature 75 °F 78 °F 93 °F (1990)
Min Temperature 53 °F 56 °F 40 °F (1934)
Degree Days  
Heating Degree Days 1 1  
Month to date heating degree days 135 108  
Since 1 July heating degree days 2997 2602  
Cooling Degree Days 0 4  
Month to date cooling degree days 71 71  
Year to date cooling degree days 78 94  
Growing Degree Days 14 (Base 50)    
Moisture  
Dew Point 42 °F    
Average Humidity 51    
Maximum Humidity 77    
Minimum Humidity 25    
Precipitation  
Precipitation 0.00 in 0.15 in 2.43 in (1966)
Month to date precipitation 3.12 3.79  
Year to date precipitation 10.35 15.38  
Snow  
Snow 0.00 in - - ()
Month to date snowfall 0.0  
Since 1 July snowfall 1.7  
Snow Depth 0.00 in    
Sea Level Pressure  
Sea Level Pressure 29.74 in    
Wind  
Wind Speed 9 mph (NW)    
Max Wind Speed 21 mph    
Max Gust Speed 29 mph    
Visibility 10 miles    
Events      
T = Trace of Precipitation, MM = Missing Value Source: NWS Daily Summary

Daily Weather History Graph

Daily Weather History Graph

Search for Another Location

Airport or City:

Trip Planner

Search our weather history database for the weather conditions in past years. The results will help you decide how hot, cold, wet, or windy it might be!

Date:

Astronomy

Apr. 29, 2014 Rise Set
Actual Time 6:29 AM CDT 7:57 PM CDT
Civil Twilight 6:03 AM CDT 8:23 PM CDT
Nautical Twilight 5:31 AM CDT 8:55 PM CDT
Astronomical Twilight 4:58 AM CDT 9:28 PM CDT
Moon 6:47 AM CDT (4/29) 8:37 PM CDT (4/29)
Length of Visible Light 14h 20m
Length of Day
13h 27m
New Moon, 0% of the Moon is Illuminated
Apr 29
New Moon
May 6
First Quarter
May 14
Full
May 21
Last Quarter
May 28
New

Hourly Weather History & Observations

Time (CDT) Temp. Dew Point Humidity Pressure Visibility Wind Dir Wind Speed Gust Speed Precip Events Conditions
12:53 AM 60.1 °F 50.0 °F 69% 29.66 in 10.0 mi NNE 5.8 mph - N/A   Clear
1:53 AM 57.9 °F 48.0 °F 70% 29.62 in 10.0 mi NNE 6.9 mph - N/A   Clear
2:53 AM 55.9 °F 48.9 °F 77% 29.65 in 10.0 mi South 3.5 mph - N/A   Clear
3:53 AM 55.9 °F 48.9 °F 77% 29.63 in 10.0 mi Calm Calm - N/A   Clear
4:53 AM 57.9 °F 48.9 °F 72% 29.65 in 10.0 mi North 4.6 mph - N/A   Mostly Cloudy
5:53 AM 59.0 °F 48.9 °F 69% 29.68 in 10.0 mi NW 3.5 mph - N/A   Mostly Cloudy
6:53 AM 60.1 °F 45.0 °F 57% 29.71 in 10.0 mi NW 5.8 mph - N/A   Clear
7:53 AM 61.0 °F 45.0 °F 56% 29.72 in 10.0 mi Calm Calm - N/A   Mostly Cloudy
8:53 AM 62.1 °F 42.1 °F 48% 29.75 in 10.0 mi NNW 5.8 mph - N/A   Mostly Cloudy
9:53 AM 62.1 °F 42.1 °F 48% 29.75 in 10.0 mi WNW 8.1 mph - N/A   Scattered Clouds
10:53 AM 61.0 °F 39.9 °F 46% 29.76 in 7.0 mi NW 9.2 mph - N/A   Clear
11:53 AM 62.1 °F 39.9 °F 44% 29.78 in 10.0 mi WNW 9.2 mph - N/A   Partly Cloudy
12:53 PM 64.9 °F 41.0 °F 42% 29.78 in 10.0 mi WNW 10.4 mph - N/A   Clear
1:53 PM 68.0 °F 39.9 °F 36% 29.76 in 10.0 mi West 9.2 mph - N/A   Scattered Clouds
2:53 PM 71.1 °F 42.1 °F 35% 29.75 in 10.0 mi West 11.5 mph 18.4 mph N/A   Clear
4:53 PM 73.9 °F 36.0 °F 25% 29.73 in 10.0 mi West 18.4 mph 26.5 mph N/A   Clear
5:27 PM 73.4 °F 35.6 °F 25% 29.75 in 10.0 mi WNW 20.7 mph 27.6 mph N/A   Clear
5:53 PM 73.0 °F 37.0 °F 27% 29.74 in 10.0 mi West 18.4 mph 25.3 mph N/A   Clear
6:53 PM 71.1 °F 36.0 °F 28% 29.76 in 10.0 mi WNW 16.1 mph 24.2 mph N/A   Clear
7:53 PM 66.9 °F 37.0 °F 33% 29.78 in 10.0 mi WNW 15.0 mph 23.0 mph N/A   Clear
8:53 PM 63.0 °F 37.0 °F 38% 29.82 in 10.0 mi WNW 10.4 mph - N/A   Clear
9:53 PM 61.0 °F 39.0 °F 44% 29.85 in 10.0 mi WNW 13.8 mph - N/A   Clear
10:53 PM 57.9 °F 39.0 °F 49% 29.88 in 10.0 mi NW 11.5 mph - N/A   Clear
11:53 PM 55.0 °F 39.0 °F 55% 29.91 in 10.0 mi NW 8.1 mph - N/A   Clear